GW0807 Weather Reports


Display with metric or nautical units.
time (UTC)temp
F
wind
direction
speed
MPH
gust
MPH
rain 1hr
in
rain 24hr
in
rain mn
in
humidity
%
barometer
mb
20260507050505 64 315 7.0 15.0 0.01 0.03 0.01 91 1009.1
20260507050002 64 315 6.0 15.0 0.00 0.02 0.00 91 1009.2
20260507045505 64 296 2.0 4.0 0.00 0.02 0.00 92 1009.1
20260507045004 64 241 3.0 4.0 0.00 0.02 0.00 92 1009.0
20260507044505 64 223 3.0 4.0 0.00 0.02 0.00 92 1009.1
20260507043505 64 171 2.0 4.0 0.00 0.02 0.00 92 1009.1
20260507042005 64 161 2.0 5.0 0.00 0.02 0.00 92 1008.9
20260507041001 64 135 2.0 5.0 0.00 0.02 0.00 93 1008.7
20260507040504 63 148 2.0 3.0 0.00 0.02 0.00 93 1009.0
20260507035505 63 160 2.0 3.0 0.00 0.02 0.02 93 1009.0
20260507035005 63 160 2.0 2.0 0.00 0.02 0.02 93 1009.0
20260507034505 63 160 2.0 2.0 0.00 0.02 0.02 93 1009.1
20260507034004 63 160 2.0 2.0 0.00 0.02 0.02 93 1009.1
20260507033504 63 160 0.0 0.0 0.00 0.02 0.02 92 1008.9
20260507033005 63 160 0.0 0.0 0.00 0.02 0.02 92 1008.8
20260507032505 63 160 0.0 0.0 0.00 0.02 0.02 92 1008.6
20260507032005 63 160 0.0 1.0 0.00 0.02 0.02 92 1008.6
20260507031505 63 160 0.0 2.0 0.00 0.02 0.02 91 1008.6
20260507031005 63 115 1.0 3.0 0.00 0.02 0.02 91 1008.4
20260507030505 63 114 1.0 3.0 0.00 0.02 0.02 92 1008.2
20260507030005 63 131 1.0 3.0 0.00 0.02 0.02 92 1008.0
20260507025504 63 152 0.0 0.0 0.00 0.02 0.02 92 1008.3
20260507024505 63 153 0.0 0.0 0.00 0.02 0.02 92 1008.6
20260507023504 63 153 1.0 3.0 0.00 0.02 0.02 93 1008.8
20260507023005 63 133 2.0 3.0 0.00 0.02 0.02 93 1008.9
20260507022505 62 177 2.0 3.0 0.00 0.02 0.02 93 1009.0
20260507022004 62 177 2.0 3.0 0.00 0.02 0.02 92 1009.0
20260507021505 62 207 1.0 2.0 0.00 0.02 0.02 92 1009.1
20260507020005 63 207 0.0 1.0 0.00 0.02 0.02 91 1008.8
20260507015505 63 207 0.0 1.0 0.00 0.02 0.02 91 1008.8
20260507015005 63 207 1.0 1.0 0.00 0.02 0.02 91 1009.1
20260507014505 63 207 0.0 1.0 0.00 0.02 0.02 90 1009.1
20260507014005 63 207 0.0 2.0 0.00 0.02 0.02 90 1008.9
20260507013505 64 207 0.0 2.0 0.00 0.02 0.02 90 1009.0
20260507013006 64 210 0.0 3.0 0.00 0.02 0.02 90 1008.9
20260507012505 64 210 0.0 4.0 0.00 0.02 0.02 89 1009.2
20260507011505 64 207 3.0 4.0 0.00 0.02 0.02 90 1009.1
20260507011005 64 193 3.0 6.0 0.00 0.02 0.02 89 1008.9
20260507010505 64 180 4.0 6.0 0.00 0.02 0.02 89 1008.7
20260507010006 65 181 5.0 6.0 0.00 0.02 0.02 88 1008.7
20260507005505 65 185 5.0 6.0 0.00 0.02 0.02 88 1008.8
20260507005005 65 205 4.0 6.0 0.00 0.02 0.02 87 1008.6
20260507004504 65 197 4.0 7.0 0.00 0.02 0.02 88 1008.7
20260507003505 66 195 6.0 8.0 0.00 0.02 0.02 87 1008.7
20260507003005 66 192 6.0 8.0 0.00 0.02 0.02 86 1008.8
20260507001505 66 198 7.0 10.0 0.00 0.02 0.02 85 1008.3
20260507000505 67 196 7.0 10.0 0.00 0.02 0.02 85 1008.3
20260507000005 67 201 8.0 11.0 0.00 0.02 0.02 85 1008.3
20260506235505 67 202 9.0 11.0 0.00 0.02 0.02 84 1008.2
20260506235005 67 184 8.0 11.0 0.00 0.02 0.02 84 1008.3
20260506234505 67 192 8.0 10.0 0.00 0.02 0.02 84 1008.3
20260506234005 67 201 9.0 10.0 0.00 0.02 0.02 84 1008.2
20260506233505 67 206 8.0 12.0 0.00 0.02 0.02 84 1008.2
20260506233006 67 202 8.0 12.0 0.00 0.02 0.02 84 1008.2
20260506232505 67 198 8.0 12.0 0.00 0.02 0.02 84 1008.1
20260506232004 67 203 8.0 10.0 0.00 0.02 0.02 83 1008.1
20260506231505 68 192 8.0 11.0 0.00 0.02 0.02 83 1008.0
20260506231004 68 195 8.0 11.0 0.00 0.02 0.02 83 1008.1
20260506230505 68 207 8.0 12.0 0.00 0.02 0.02 83 1008.1
20260506230005 68 205 9.0 12.0 0.00 0.02 0.02 83 1007.9
20260506225505 68 190 8.0 12.0 0.00 0.02 0.02 82 1007.9
20260506224505 68 206 9.0 13.0 0.00 0.02 0.02 82 1008.1
20260506224005 68 199 9.0 13.0 0.00 0.02 0.02 81 1008.2
20260506222505 68 205 12.0 19.0 0.00 0.02 0.02 81 1008.2
20260506222006 68 191 12.0 18.0 0.00 0.02 0.02 81 1008.1
20260506221505 68 206 14.0 18.0 0.00 0.02 0.02 81 1008.1
20260506221005 68 187 12.0 21.0 0.00 0.02 0.02 81 1008.2
20260506220005 68 213 154.0 655.0 8.05 0.00 0.02 81
20260506215504 68 200 12.0 17.0 0.00 0.02 0.02 81 1008.3
20260506215006 68 207 13.0 18.0 0.00 0.02 0.02 81 1008.2
20260506214505 68 191 13.0 18.0 0.00 0.02 0.02 82 1008.2
20260506213504 68 188 13.0 18.0 0.00 0.02 0.02 82 1008.1
20260506213005 68 204 14.0 20.0 0.00 0.02 0.02 82 1008.0
20260506211505 68 186 14.0 19.0 0.00 0.02 0.02 82 1008.0
20260506211003 68 209 15.0 19.0 0.00 0.02 0.02 81 1008.0
20260506210505 68 191 13.0 17.0 0.00 0.02 0.02 82 1008.0
20260506210005 68 192 15.0 21.0 0.00 0.02 0.02 82 1007.9
20260506205505 68 187 14.0 21.0 0.00 0.02 0.02 81 1007.9
20260506204004 67 183 14.0 17.0 0.00 0.02 0.02 82 1008.0
20260506203504 67 199 13.0 16.0 0.00 0.02 0.02 82 1008.0
20260506203004 67 180 13.0 18.0 0.00 0.02 0.02 83 1008.0
20260506202504 67 193 14.0 22.0 0.00 0.02 0.02 82 1008.4
20260506201504 67 192 16.0 22.0 0.00 0.02 0.02 82 1008.2
20260506201004 67 194 17.0 22.0 0.00 0.02 0.02 82 1008.1
20260506200504 67 191 16.0 23.0 0.00 0.02 0.02 82 1008.0
20260506200005 67 194 18.0 23.0 0.00 0.02 0.02 82 1008.1
20260506195500 67 190 19.0 22.0 0.00 0.02 0.02 82 1008.3
20260506194503 67 189 17.0 24.0 0.00 0.02 0.02 82 1008.6
20260506194002 67 198 16.0 24.0 0.00 0.02 0.02 81 1008.6
20260506193505 68 180 19.0 23.0 0.00 0.02 0.02 81 1008.3
20260506193004 67 184 17.0 24.0 0.00 0.02 0.02 81 1008.9
20260506192002 67 186 16.0 20.0 0.00 0.02 0.02 82 1009.0
20260506191502 67 190 12.0 22.0 0.00 0.02 0.02 82 1009.0
20260506191004 67 200 15.0 22.0 0.00 0.02 0.02 81 1009.2
20260506190503 67 196 18.0 22.0 0.00 0.02 0.02 80 1009.1
20260506190005 67 194 16.0 26.0 0.00 0.02 0.02 80 1008.7
20260506185505 67 174 18.0 29.0 0.00 0.02 0.02 80 1008.6
20260506185004 67 195 19.0 24.0 0.00 0.02 0.02 81 1008.9
20260506184504 67 184 17.0 22.0 0.00 0.02 0.02 81 1009.2
20260506183500 67 193 15.0 19.0 0.00 0.02 0.02 80 1009.5
20260506183005 67 192 14.0 19.0 0.00 0.02 0.02 81 1009.6
20260506182500 67 196 15.0 22.0 0.00 0.02 0.02 81 1009.7
20260506182004 67 192 16.0 24.0 0.00 0.02 0.02 81 1009.5
20260506181000 67 173 20.0 26.0 0.00 0.02 0.02 81 1009.6
20260506180502 66 180 20.0 30.0 0.00 0.02 0.02 82 1009.5
20260506180006 66 183 19.0 25.0 0.00 0.02 0.02 82 1009.6
20260506174505 66 172 22.0 27.0 0.00 0.02 0.02 82 1009.8
20260506174005 66 173 20.0 25.0 0.00 0.02 0.02 82 1009.8
20260506173504 66 179 20.0 25.0 0.00 0.02 0.02 83 1009.8
20260506173005 66 179 21.0 26.0 0.00 0.02 0.02 83 1009.9
20260506172505 66 180 20.0 26.0 0.00 0.02 0.02 84 1009.9
20260506172004 65 179 20.0 27.0 0.00 0.02 0.02 85 1009.6
20260506171505 65 169 22.0 27.0 0.00 0.02 0.02 85 1009.8
20260506170505 64 175 20.0 26.0 0.01 0.02 0.02 87 1009.9
20260506165500 63 184 19.0 25.0 0.02 0.02 0.02 86 1010.1
20260506165003 63 165 20.0 25.0 0.02 0.02 0.02 86 1010.0
20260506164505 63 172 18.0 25.0 0.02 0.02 0.02 86 1009.9
20260506164004 63 177 21.0 24.0 0.02 0.02 0.02 86 1010.1
20260506163000 64 182 19.0 28.0 0.02 0.02 0.02 86 1010.2
20260506162500 64 180 24.0 28.0 0.02 0.02 0.02 86 1010.2
20260506162002 64 168 22.0 28.0 0.02 0.02 0.02 85 1010.2
20260506161504 64 184 21.0 28.0 0.02 0.02 0.02 85 1010.3
20260506161005 64 183 23.0 30.0 0.01 0.01 0.01 84 1010.2
20260506160504 64 178 24.0 30.0 0.01 0.01 0.01 83 1010.3
20260506160004 64 186 21.0 27.0 0.00 0.00 0.00 82 1010.5
20260506155000 65 188 20.0 27.0 0.00 0.00 0.00 81 1010.9
20260506153500 65 177 16.0 20.0 0.00 0.00 0.00 83 1011.0
20260506153000 64 176 15.0 19.0 0.00 0.00 0.00 82 1011.0
20260506152500 64 167 14.0 16.0 0.00 0.00 0.00 83 1011.0
20260506152000 64 173 15.0 16.0 0.00 0.00 0.00 84 1011.1
20260506151504 64 181 12.0 15.0 0.00 0.00 0.00 84 1011.1
20260506151002 64 184 13.0 16.0 0.00 0.00 0.00 83 1011.1
20260506150500 64 183 13.0 16.0 0.00 0.00 0.00 82 1011.3
20260506145504 64 188 12.0 17.0 0.00 0.00 0.00 83 1011.1
20260506145003 65 188 12.0 18.0 0.00 0.00 0.00 82 1011.3
20260506144500 65 190 14.0 19.0 0.00 0.00 0.00 80 1011.3
20260506144000 65 195 14.0 19.0 0.00 0.00 0.00 78 1011.2
20260506143000 66 181 16.0 20.0 0.00 0.00 0.00 77 1011.0
20260506142500 66 177 14.0 19.0 0.00 0.00 0.00 75 1011.0
20260506141505 66 177 16.0 21.0 0.00 0.00 0.00 74 1011.0
20260506141000 66 182 17.0 22.0 0.00 0.00 0.00 74 1011.1
20260506140500 66 184 19.0 22.0 0.00 0.00 0.00 74 1011.1
20260506140005 66 185 18.0 21.0 0.00 0.00 0.00 74 1011.2
20260506135500 66 175 17.0 24.0 0.00 0.00 0.00 73 1011.1
20260506135005 66 184 18.0 24.0 0.00 0.00 0.00 73 1011.1
20260506134502 67 176 19.0 26.0 0.00 0.00 0.00 73 1011.1
20260506134004 67 171 18.0 25.0 0.00 0.00 0.00 72 1011.0
20260506133500 67 170 19.0 27.0 0.00 0.00 0.00 72 1011.1
20260506132959 67 195 24.0 27.0 0.00 0.00 0.00 72 1011.2
20260506132005 67 167 20.0 26.0 0.00 0.00 0.00 71 1011.0
20260506131500 67 176 21.0 24.0 0.00 0.00 0.00 72 1011.0
20260506131005 67 177 20.0 29.0 0.00 0.00 0.00 72 1011.1
20260506130500 67 177 22.0 29.0 0.00 0.00 0.00 72 1011.1
20260506130006 66 171 19.0 30.0 0.00 0.00 0.00 73 1011.0
20260506125500 66 178 22.0 30.0 0.00 0.00 0.00 72 1010.9
20260506124504 66 174 19.0 23.0 0.00 0.00 0.00 72 1010.9
20260506124000 67 182 19.0 25.0 0.00 0.00 0.00 72 1010.9
20260506123500 67 171 21.0 26.0 0.00 0.00 0.00 72 1011.1
20260506122500 66 174 16.0 23.0 0.00 0.00 0.00 72 1011.3
20260506122000 66 178 18.0 28.0 0.00 0.00 0.00 72 1011.4
20260506121500 66 175 24.0 28.0 0.00 0.00 0.00 72 1011.5
20260506120959 66 167 19.0 27.0 0.00 0.00 0.00 72 1011.4
20260506120459 66 170 23.0 30.0 0.00 0.00 0.00 71 1011.6
20260506120005 66 186 20.0 25.0 0.00 0.00 0.00 72 1011.7
20260506115500 66 192 22.0 27.0 0.00 0.00 0.00 72 1011.4
20260506114459 66 182 19.0 25.0 0.00 0.00 0.00 73 1011.2
20260506113500 66 176 22.0 27.0 0.00 0.00 0.00 72 1011.1
20260506112959 65 181 19.0 26.0 0.00 0.00 0.00 74 1011.1
20260506112500 65 171 23.0 27.0 0.00 0.00 0.00 74 1011.0
20260506111959 64 162 21.0 28.0 0.00 0.00 0.00 74 1011.0
20260506111500 64 175 23.0 27.0 0.00 0.00 0.00 74 1011.0
20260506111000 64 181 21.0 28.0 0.00 0.00 0.00 74 1011.0
20260506110504 64 179 22.0 29.0 0.00 0.00 0.00 74 1010.8
20260506105500 64 181 22.0 28.0 0.00 0.00 0.00 74 1010.7
20260506105000 64 183 22.0 27.0 0.00 0.00 0.00 75 1010.8
20260506104500 64 173 21.0 28.0 0.00 0.00 0.00 75 1010.9
20260506104002 64 180 21.0 28.0 0.00 0.00 0.00 75 1010.7
20260506103500 64 178 22.0 29.0 0.00 0.00 0.00 75 1010.6
20260506103000 64 174 24.0 27.0 0.00 0.00 0.00 75 1010.6
20260506102459 64 173 23.0 27.0 0.00 0.00 0.00 75 1010.5
20260506102000 64 183 22.0 27.0 0.00 0.00 0.00 75 1010.6
20260506100006 64 180 21.0 28.0 0.00 0.00 0.00 76 1010.9
20260506095505 64 186 22.0 30.0 0.00 0.00 0.00 77 1010.9
20260506095000 64 185 20.0 25.0 0.00 0.00 0.00 77 1010.9
20260506094500 64 190 20.0 25.0 0.00 0.00 0.00 78 1011.0
20260506094000 64 183 20.0 25.0 0.00 0.00 0.00 77 1010.8
20260506093500 64 182 19.0 28.0 0.00 0.00 0.00 77 1010.8
20260506093006 64 186 21.0 28.0 0.00 0.00 0.00 77 1010.8
20260506092500 64 182 21.0 28.0 0.00 0.00 0.00 77 1010.7
20260506092004 64 191 20.0 29.0 0.00 0.00 0.00 77 1010.7
20260506091505 64 182 20.0 30.0 0.00 0.00 0.00 77 1010.7
20260506091005 64 173 23.0 30.0 0.00 0.00 0.00 77 1010.7
20260506090504 64 175 24.0 28.0 0.00 0.00 0.00 77 1010.6
20260506090005 64 184 24.0 29.0 0.00 0.00 0.00 77 1010.7
20260506085504 64 174 23.0 29.0 0.00 0.00 0.00 77 1010.7
20260506085000 64 180 23.0 31.0 0.00 0.00 0.00 77 1010.7
20260506084505 64 179 23.0 30.0 0.00 0.00 0.00 77 1010.9
20260506084003 64 183 22.0 28.0 0.00 0.00 0.00 77 1010.9
20260506083501 64 183 24.0 28.0 0.00 0.00 0.00 77 1010.7
20260506082959 64 173 23.0 27.0 0.00 0.00 0.00 77 1010.7
20260506082504 65 171 24.0 29.0 0.00 0.00 0.00 77 1010.8
20260506082003 65 174 25.0 27.0 0.00 0.00 0.00 77 1010.7
20260506081000 65 173 23.0 30.0 0.00 0.00 0.00 77 1010.7
20260506080503 65 180 24.0 29.0 0.00 0.00 0.00 77 1010.9
20260506072958 65 178 21.0 26.0 0.00 0.00 0.00 77 1011.2
20260506072459 65 171 22.0 25.0 0.00 0.00 0.00 77 1011.2
20260506071959 65 174 22.0 31.0 0.00 0.00 0.00 77 1011.3
20260506070958 65 168 20.0 27.0 0.00 0.00 0.00 76 1011.2
20260506070459 65 169 23.0 29.0 0.00 0.00 0.00 76 1011.2
20260506062459 66 180 21.0 28.0 0.00 0.00 0.00 75 1011.4
20260506061959 66 184 22.0 28.0 0.00 0.00 0.00 76 1011.3
20260506061459 66 172 23.0 26.0 0.00 0.00 0.00 75 1011.3
20260506060958 66 176 22.0 28.0 0.00 0.00 0.00 75 1011.2
20260506051000 68 172 24.0 32.0 0.00 0.00 0.00 74 1011.7